sat.trackr.live / text

‹ back to catalog

STARLINK-32248

NORAD 61219 · 2024-171V

PAYLOAD ACTIVE UNKNOWN

§ Identity

Operator
Country
US
Launch date
2024-09-20
Launch site
AFWTR
Launch vehicle
Mass (kg)
RCS (m²)

Purposes: comms

External: N2YO · Heavens-Above · Gunter

§ Orbital elements

Epoch: 2026-05-25T04:00:03.998880Z

Period
94.01 min
Inclination
53.1601°
Eccentricity
0.0001173
Mean motion
15.31711929 rev/d
Perigee alt
469.9 km
Apogee alt
471.5 km
Semi-major
6,848.8 km
B*
-6.6645e-4
RAAN
327.3868°
Arg perigee
67.9619°
Mean anomaly
341.1560°
Rev number
565

§ Raw data

STARLINK-322481 61219U 24171V   26145.16671295 -.00020996  00000+0 -66645-3 0  99962 61219  53.1601 327.3868 0001173  67.9619 341.1560 15.31711929  5659

JSON: /api/v1/satellites/61219 · /tle

For live sub-satellite position, see the globe view (requires WebGL).

§ Visibility from observer

Set your observer location to see the next 7 days of passes ≥ 10°. The values pass through the URL so the page stays shareable.

No JS? Fill the form by hand. The geolocation button needs JavaScript.